Time,TemperatureF,DewpointF,PressureIn,WindDirection,WindDirectionDegrees,WindSpeedMPH,WindSpeedGustMPH,Humidity,HourlyPrecipIn,Conditions,Clouds,dailyrainin,SoftwareType,DateUTC
2013-01-28 00:03:00,37.6,32.6,30.10,ENE,68,0.7,1.1,82,0.00,,,0.00,WUHU216HW,2013-01-28 08:03:00,
2013-01-28 00:08:00,37.6,32.6,30.10,NE,45,0.4,0.7,82,0.00,,,0.00,WUHU216HW,2013-01-28 08:08:00,
2013-01-28 00:13:00,37.6,33.0,30.11,WNW,293,0.7,3.4,83,0.00,,,0.00,WUHU216HW,2013-01-28 08:13:00,
2013-01-28 00:18:00,38.0,33.6,30.11,WNW,293,1.1,3.4,84,0.00,,,0.00,WUHU216HW,2013-01-28 08:18:00,
2013-01-28 00:23:00,38.5,34.1,30.10,NW,315,1.6,3.1,84,0.00,,,0.00,WUHU216HW,2013-01-28 08:23:00,
2013-01-28 00:28:00,39.2,34.8,30.10,NW,315,2.0,4.0,84,0.00,,,0.00,WUHU216HW,2013-01-28 08:28:00,
2013-01-28 00:34:00,39.8,34.8,30.10,NW,315,1.6,4.3,82,0.00,,,0.00,WUHU216HW,2013-01-28 08:34:00,
2013-01-28 00:39:00,40.1,35.1,30.10,West,270,0.4,4.3,82,0.00,,,0.00,WUHU216HW,2013-01-28 08:39:00,
2013-01-28 00:44:00,40.3,34.9,30.10,NNW,338,0.7,4.0,81,0.00,,,0.00,WUHU216HW,2013-01-28 08:44:00,
2013-01-28 00:49:00,40.5,35.1,30.10,East,90,0.9,4.0,81,0.00,,,0.00,WUHU216HW,2013-01-28 08:49:00,
2013-01-28 00:54:00,40.3,34.9,30.10,NW,315,0.2,1.8,81,0.00,,,0.00,WUHU216HW,2013-01-28 08:54:00,
2013-01-28 00:59:00,40.3,34.9,30.10,WNW,293,0.7,1.3,81,0.00,,,0.00,WUHU216HW,2013-01-28 08:59:00,
2013-01-28 01:04:00,40.3,34.9,30.10,WNW,293,1.1,3.1,81,0.00,,,0.00,WUHU216HW,2013-01-28 09:04:00,
2013-01-28 01:09:00,40.1,34.5,30.10,NW,315,0.2,3.1,80,0.00,,,0.00,WUHU216HW,2013-01-28 09:09:00,
2013-01-28 01:14:00,40.1,34.7,30.10,NW,315,0.0,1.1,81,0.00,,,0.00,WUHU216HW,2013-01-28 09:14:00,
2013-01-28 01:19:00,40.0,33.9,30.11,North,0,0.2,1.8,79,0.00,,,0.00,WUHU216HW,2013-01-28 09:19:00,
2013-01-28 01:24:00,40.0,33.9,30.11,NNW,338,0.2,1.8,79,0.00,,,0.00,WUHU216HW,2013-01-28 09:24:00,
2013-01-28 01:29:00,40.0,34.3,30.11,WNW,293,1.6,1.8,80,0.00,,,0.00,WUHU216HW,2013-01-28 09:29:00,
2013-01-28 01:34:00,40.0,34.3,30.11,WNW,293,0.9,1.8,80,0.00,,,0.00,WUHU216HW,2013-01-28 09:34:00,
2013-01-28 01:39:00,40.1,34.7,30.11,East,90,0.2,2.5,81,0.00,,,0.00,WUHU216HW,2013-01-28 09:39:00,
2013-01-28 01:44:00,40.1,34.5,30.11,NE,45,0.4,2.5,80,0.00,,,0.00,WUHU216HW,2013-01-28 09:44:00,
2013-01-28 01:49:00,40.0,33.9,30.11,NNE,23,0.0,1.1,79,0.00,,,0.00,WUHU216HW,2013-01-28 09:49:00,
2013-01-28 01:54:00,40.0,33.9,30.11,West,270,0.4,1.1,79,0.00,,,0.00,WUHU216HW,2013-01-28 09:54:00,
2013-01-28 01:59:00,39.8,33.9,30.11,West,270,0.0,0.4,79,0.00,,,0.00,WUHU216HW,2013-01-28 09:59:00,
2013-01-28 02:05:00,39.6,33.7,30.11,East,90,0.4,1.1,79,0.00,,,0.00,WUHU216HW,2013-01-28 10:05:00,
2013-01-28 02:10:00,39.2,33.7,30.11,ENE,68,0.2,1.1,80,0.00,,,0.00,WUHU216HW,2013-01-28 10:10:00,
2013-01-28 02:15:00,39.2,33.7,30.11,ENE,68,0.4,0.9,80,0.00,,,0.00,WUHU216HW,2013-01-28 10:15:00,
2013-01-28 02:20:00,38.9,33.3,30.11,ESE,113,0.4,0.9,80,0.00,,,0.00,WUHU216HW,2013-01-28 10:20:00,
2013-01-28 02:25:00,38.7,33.1,30.11,ESE,113,0.0,0.9,80,0.00,,,0.00,WUHU216HW,2013-01-28 10:25:00,
2013-01-28 02:30:00,38.5,32.9,30.11,ESE,113,0.0,0.4,80,0.00,,,0.00,WUHU216HW,2013-01-28 10:30:00,
2013-01-28 02:35:00,38.3,32.8,30.11,ESE,113,0.0,0.4,80,0.00,,,0.00,WUHU216HW,2013-01-28 10:35:00,
2013-01-28 02:40:00,38.0,32.4,30.11,ESE,113,0.0,0.4,80,0.00,,,0.00,WUHU216HW,2013-01-28 10:40:00,
2013-01-28 02:45:00,37.8,32.5,30.12,ESE,113,0.0,0.2,81,0.00,,,0.00,WUHU216HW,2013-01-28 10:45:00,
2013-01-28 02:50:00,37.8,32.5,30.11,East,90,0.0,0.4,81,0.00,,,0.00,WUHU216HW,2013-01-28 10:50:00,
2013-01-28 02:55:00,37.6,32.6,30.11,ENE,68,0.0,0.4,82,0.00,,,0.00,WUHU216HW,2013-01-28 10:55:00,
2013-01-28 03:01:00,37.4,32.4,30.11,ESE,113,0.0,0.4,82,0.00,,,0.00,WUHU216HW,2013-01-28 11:01:00,
2013-01-28 03:06:00,37.4,32.4,30.11,NE,45,0.0,0.4,82,0.00,,,0.00,WUHU216HW,2013-01-28 11:06:00,
2013-01-28 03:11:00,37.4,32.4,30.11,SSE,158,0.4,0.4,82,0.00,,,0.00,WUHU216HW,2013-01-28 11:11:00,
2013-01-28 03:17:00,37.3,32.6,30.11,East,90,0.2,0.7,83,0.00,,,0.00,WUHU216HW,2013-01-28 11:17:00,
2013-01-28 03:22:00,37.3,32.2,30.11,East,90,0.4,0.7,82,0.00,,,0.00,WUHU216HW,2013-01-28 11:22:00,
2013-01-28 03:27:00,37.1,32.4,30.11,NNE,23,0.0,0.4,83,0.00,,,0.00,WUHU216HW,2013-01-28 11:27:00,
2013-01-28 03:32:00,37.1,32.4,30.11,NNE,23,0.0,0.2,83,0.00,,,0.00,WUHU216HW,2013-01-28 11:32:00,
2013-01-28 03:37:00,37.1,32.4,30.11,NNE,23,0.0,0.0,83,0.00,,,0.00,WUHU216HW,2013-01-28 11:37:00,
2013-01-28 03:42:00,37.1,32.4,30.11,NNE,23,0.0,0.0,83,0.00,,,0.00,WUHU216HW,2013-01-28 11:42:00,
2013-01-28 03:47:00,36.9,32.2,30.11,NNE,23,0.2,0.2,83,0.00,,,0.00,WUHU216HW,2013-01-28 11:47:00,
2013-01-28 03:52:00,36.7,32.1,30.11,SSW,203,0.2,0.2,83,0.00,,,0.00,WUHU216HW,2013-01-28 11:52:00,
2013-01-28 03:57:00,36.7,32.3,30.12,SE,135,0.0,0.2,84,0.00,,,0.00,WUHU216HW,2013-01-28 11:57:00,
2013-01-28 04:02:00,36.7,32.3,30.12,SE,135,0.0,0.2,84,0.00,,,0.00,WUHU216HW,2013-01-28 12:02:00,
2013-01-28 04:07:00,36.4,32.0,30.12,SSE,158,0.2,0.4,84,0.00,,,0.00,WUHU216HW,2013-01-28 12:07:00,
2013-01-28 04:13:00,36.4,32.0,30.12,SSE,158,0.2,0.4,84,0.00,,,0.00,WUHU216HW,2013-01-28 12:13:00,
2013-01-28 04:18:00,36.2,31.8,30.12,West,270,0.0,0.2,84,0.00,,,0.00,WUHU216HW,2013-01-28 12:18:00,
2013-01-28 04:23:00,36.0,31.6,30.11,West,270,0.0,0.2,84,0.00,,,0.00,WUHU216HW,2013-01-28 12:23:00,
2013-01-28 04:28:00,36.0,31.6,30.11,West,270,0.0,0.2,84,0.00,,,0.00,WUHU216HW,2013-01-28 12:28:00,
2013-01-28 04:33:00,36.0,31.9,30.11,North,0,0.0,0.4,85,0.00,,,0.00,WUHU216HW,2013-01-28 12:33:00,
2013-01-28 04:38:00,36.0,31.9,30.11,SSW,203,0.9,0.9,85,0.00,,,0.00,WUHU216HW,2013-01-28 12:38:00,
2013-01-28 04:43:00,36.2,32.3,30.11,SSW,203,0.0,0.9,86,0.00,,,0.00,WUHU216HW,2013-01-28 12:43:00,
2013-01-28 04:48:00,36.2,32.3,30.11,SSW,203,0.0,0.4,86,0.00,,,0.00,WUHU216HW,2013-01-28 12:48:00,
2013-01-28 04:54:00,36.2,32.3,30.11,SSE,158,0.2,0.2,86,0.00,,,0.00,WUHU216HW,2013-01-28 12:54:00,
2013-01-28 04:59:00,36.2,32.3,30.11,ENE,68,0.4,0.4,86,0.00,,,0.00,WUHU216HW,2013-01-28 12:59:00,
2013-01-28 05:04:00,36.2,32.3,30.11,ENE,68,0.4,0.4,86,0.00,,,0.00,WUHU216HW,2013-01-28 13:04:00,
2013-01-28 05:09:00,36.2,32.3,30.11,SSW,203,0.0,0.4,86,0.00,,,0.00,WUHU216HW,2013-01-28 13:09:00,
2013-01-28 05:14:00,36.4,32.5,30.11,WSW,248,0.0,0.4,86,0.00,,,0.00,WUHU216HW,2013-01-28 13:14:00,
2013-01-28 05:19:00,36.4,32.5,30.11,NW,315,0.4,0.4,86,0.00,,,0.00,WUHU216HW,2013-01-28 13:19:00,
2013-01-28 05:24:00,36.2,32.3,30.11,NW,315,0.0,0.4,86,0.00,,,0.00,WUHU216HW,2013-01-28 13:24:00,
2013-01-28 05:29:00,36.4,32.5,30.11,SW,225,0.2,0.4,86,0.00,,,0.00,WUHU216HW,2013-01-28 13:29:00,
2013-01-28 05:34:00,36.4,32.5,30.11,WSW,248,0.0,1.1,86,0.00,,,0.00,WUHU216HW,2013-01-28 13:34:00,
2013-01-28 05:40:00,36.5,32.7,30.11,WSW,248,0.0,1.1,86,0.00,,,0.00,WUHU216HW,2013-01-28 13:40:00,
2013-01-28 05:45:00,36.5,32.9,30.11,NNW,338,0.2,0.2,87,0.00,,,0.00,WUHU216HW,2013-01-28 13:45:00,
2013-01-28 05:50:00,36.5,32.9,30.11,NNW,338,0.0,0.4,87,0.00,,,0.00,WUHU216HW,2013-01-28 13:50:00,
2013-01-28 05:55:00,36.5,32.7,30.11,SE,135,0.2,0.4,86,0.00,,,0.00,WUHU216HW,2013-01-28 13:55:00,
2013-01-28 06:00:00,36.5,32.9,30.11,SE,135,0.2,0.7,87,0.00,,,0.00,WUHU216HW,2013-01-28 14:00:00,
2013-01-28 06:05:00,36.5,32.9,30.11,SE,135,0.7,0.7,87,0.00,,,0.00,WUHU216HW,2013-01-28 14:05:00,
2013-01-28 06:10:00,36.4,32.5,30.11,SE,135,0.0,0.7,86,0.00,,,0.00,WUHU216HW,2013-01-28 14:10:00,
2013-01-28 06:15:00,36.2,32.3,30.11,SE,135,0.0,0.2,86,0.00,,,0.00,WUHU216HW,2013-01-28 14:15:00,
2013-01-28 06:20:00,36.0,32.1,30.11,SE,135,0.0,0.0,86,0.00,,,0.00,WUHU216HW,2013-01-28 14:20:00,
2013-01-28 06:26:00,35.8,32.0,30.11,ESE,113,0.0,0.0,86,0.00,,,0.00,WUHU216HW,2013-01-28 14:26:00,
2013-01-28 06:31:00,35.6,31.5,30.11,SE,135,0.0,0.0,85,0.00,,,0.00,WUHU216HW,2013-01-28 14:31:00,
2013-01-28 06:36:00,35.6,31.5,30.11,SE,135,0.0,0.0,85,0.00,,,0.00,WUHU216HW,2013-01-28 14:36:00,
2013-01-28 06:41:00,35.5,31.3,30.12,SE,135,0.0,0.2,85,0.00,,,0.00,WUHU216HW,2013-01-28 14:41:00,
2013-01-28 06:46:00,35.3,31.1,30.12,ENE,68,0.0,0.4,85,0.00,,,0.00,WUHU216HW,2013-01-28 14:46:00,
2013-01-28 06:51:00,35.1,31.0,30.12,NE,45,0.0,0.4,85,0.00,,,0.00,WUHU216HW,2013-01-28 14:51:00,
2013-01-28 06:56:00,34.9,30.8,30.12,NE,45,0.0,0.0,85,0.00,,,0.00,WUHU216HW,2013-01-28 14:56:00,
2013-01-28 07:01:00,34.9,30.8,30.12,NW,315,0.0,0.2,85,0.00,,,0.00,WUHU216HW,2013-01-28 15:01:00,
2013-01-28 07:06:00,34.7,30.9,30.12,NW,315,0.0,0.2,86,0.00,,,0.00,WUHU216HW,2013-01-28 15:06:00,
2013-01-28 07:11:00,34.6,30.7,30.12,North,0,0.0,0.0,86,0.00,,,0.00,WUHU216HW,2013-01-28 15:11:00,
2013-01-28 07:16:00,34.4,30.5,30.12,North,0,0.0,0.2,86,0.00,,,0.00,WUHU216HW,2013-01-28 15:16:00,
2013-01-28 07:22:00,34.4,30.5,30.13,North,0,0.0,0.2,86,0.00,,,0.00,WUHU216HW,2013-01-28 15:22:00,
2013-01-28 07:27:00,34.2,30.3,30.13,North,0,0.0,0.0,86,0.00,,,0.00,WUHU216HW,2013-01-28 15:27:00,
2013-01-28 07:32:00,34.2,30.3,30.13,ENE,68,0.4,0.4,86,0.00,,,0.00,WUHU216HW,2013-01-28 15:32:00,
2013-01-28 07:37:00,34.2,30.3,30.13,ENE,68,0.2,0.4,86,0.00,,,0.00,WUHU216HW,2013-01-28 15:37:00,
2013-01-28 07:42:00,34.2,30.3,30.13,ENE,68,0.4,0.4,86,0.00,,,0.00,WUHU216HW,2013-01-28 15:42:00,
2013-01-28 07:47:00,34.2,30.3,30.13,ENE,68,0.4,0.4,86,0.00,,,0.00,WUHU216HW,2013-01-28 15:47:00,
2013-01-28 07:52:00,34.2,30.3,30.14,NE,45,0.0,0.4,86,0.00,,,0.00,WUHU216HW,2013-01-28 15:52:00,
2013-01-28 07:57:00,34.2,30.3,30.14,WNW,293,0.0,0.2,86,0.00,,,0.00,WUHU216HW,2013-01-28 15:57:00,
2013-01-28 08:02:00,34.4,30.8,30.14,WNW,293,0.0,0.0,87,0.00,,,0.00,WUHU216HW,2013-01-28 16:02:00,
2013-01-28 08:07:00,34.7,31.1,30.14,WNW,293,0.0,0.0,87,0.00,,,0.00,WUHU216HW,2013-01-28 16:07:00,
2013-01-28 08:12:00,34.9,31.3,30.14,WNW,293,0.0,0.0,87,0.00,,,0.00,WUHU216HW,2013-01-28 16:12:00,
2013-01-28 08:17:00,34.9,31.3,30.14,WNW,293,0.0,0.0,87,0.00,,,0.00,WUHU216HW,2013-01-28 16:17:00,
2013-01-28 08:22:00,35.1,31.9,30.14,WNW,293,0.0,0.0,88,0.00,,,0.00,WUHU216HW,2013-01-28 16:22:00,
2013-01-28 08:27:00,35.6,32.4,30.14,WNW,293,0.0,0.0,88,0.00,,,0.00,WUHU216HW,2013-01-28 16:27:00,
2013-01-28 08:32:00,36.5,33.6,30.15,ENE,68,0.7,0.7,89,0.00,,,0.00,WUHU216HW,2013-01-28 16:32:00,
2013-01-28 08:38:00,37.6,34.9,30.15,East,90,0.0,0.7,90,0.00,,,0.00,WUHU216HW,2013-01-28 16:38:00,
2013-01-28 08:43:00,38.5,35.6,30.15,East,90,0.7,0.7,89,0.00,,,0.00,WUHU216HW,2013-01-28 16:43:00,
2013-01-28 08:48:00,39.8,36.5,30.15,East,90,0.7,0.7,88,0.00,,,0.00,WUHU216HW,2013-01-28 16:48:00,
2013-01-28 08:53:00,40.7,36.8,30.15,East,90,0.4,0.7,86,0.00,,,0.00,WUHU216HW,2013-01-28 16:53:00,
2013-01-28 08:58:00,41.4,37.4,30.15,ENE,68,0.4,0.4,86,0.00,,,0.00,WUHU216HW,2013-01-28 16:58:00,
2013-01-28 09:03:00,42.1,37.9,30.15,East,90,0.4,1.1,85,0.00,,,0.00,WUHU216HW,2013-01-28 17:03:00,
2013-01-28 09:09:00,42.7,38.2,30.16,SSE,158,0.0,1.1,84,0.00,,,0.00,WUHU216HW,2013-01-28 17:09:00,
2013-01-28 09:14:00,42.8,38.0,30.16,West,270,1.1,1.3,83,0.00,,,0.00,WUHU216HW,2013-01-28 17:14:00,
2013-01-28 09:20:00,43.4,38.3,30.15,West,270,2.0,4.0,82,0.00,,,0.00,WUHU216HW,2013-01-28 17:20:00,
2013-01-28 09:25:00,43.6,38.4,30.15,West,270,0.2,2.2,82,0.00,,,0.00,WUHU216HW,2013-01-28 17:25:00,
2013-01-28 09:30:00,44.1,38.6,30.15,NE,45,1.1,2.2,81,0.00,,,0.00,WUHU216HW,2013-01-28 17:30:00,
2013-01-28 09:35:00,44.3,38.8,30.15,NW,315,0.9,1.3,81,0.00,,,0.00,WUHU216HW,2013-01-28 17:35:00,
2013-01-28 09:40:00,44.6,38.9,30.15,WNW,293,1.1,2.2,80,0.00,,,0.00,WUHU216HW,2013-01-28 17:40:00,
2013-01-28 09:46:00,45.0,38.9,30.15,NW,315,4.3,4.3,79,0.00,,,0.00,WUHU216HW,2013-01-28 17:46:00,
2013-01-28 09:51:00,45.2,38.7,30.15,West,270,0.4,4.3,78,0.00,,,0.00,WUHU216HW,2013-01-28 17:51:00,
2013-01-28 09:56:00,45.4,38.6,30.16,WNW,293,0.7,3.6,77,0.00,,,0.00,WUHU216HW,2013-01-28 17:56:00,
2013-01-28 10:01:00,45.9,39.2,30.16,NW,315,0.4,3.8,77,0.00,,,0.00,WUHU216HW,2013-01-28 18:01:00,
2013-01-28 10:06:00,46.3,39.5,30.16,NW,315,0.4,3.8,77,0.00,,,0.00,WUHU216HW,2013-01-28 18:06:00,
2013-01-28 10:11:00,46.6,39.5,30.16,NW,315,0.4,3.4,76,0.00,,,0.00,WUHU216HW,2013-01-28 18:11:00,
2013-01-28 10:16:00,47.5,39.2,30.16,WSW,248,3.1,3.8,73,0.00,,,0.00,WUHU216HW,2013-01-28 18:16:00,
2013-01-28 10:21:00,48.2,39.9,30.17,WSW,248,0.7,3.8,73,0.00,,,0.00,WUHU216HW,2013-01-28 18:21:00,
2013-01-28 10:26:00,49.1,39.8,30.17,North,0,1.3,2.5,70,0.00,,,0.00,WUHU216HW,2013-01-28 18:26:00,
2013-01-28 10:31:00,49.9,40.5,30.17,NNE,23,0.4,1.3,70,0.00,,,0.00,WUHU216HW,2013-01-28 18:31:00,
2013-01-28 10:36:00,50.4,39.9,30.17,West,270,1.3,2.9,67,0.00,,,0.00,WUHU216HW,2013-01-28 18:36:00,
2013-01-28 10:41:00,50.6,40.4,30.18,South,180,1.6,5.4,68,0.00,,,0.00,WUHU216HW,2013-01-28 18:41:00,
2013-01-28 10:46:00,50.6,40.4,30.18,NW,315,0.4,5.4,68,0.00,,,0.00,WUHU216HW,2013-01-28 18:46:00,
2013-01-28 10:52:00,50.8,40.2,30.17,WNW,293,2.2,5.4,67,0.00,,,0.00,WUHU216HW,2013-01-28 18:52:00,
2013-01-28 10:57:00,51.1,39.3,30.17,WNW,293,3.4,3.8,64,0.00,,,0.00,WUHU216HW,2013-01-28 18:57:00,
2013-01-28 11:02:00,51.3,39.9,30.18,WNW,293,4.0,4.0,65,0.00,,,0.00,WUHU216HW,2013-01-28 19:02:00,
2013-01-28 11:07:00,51.5,40.1,30.18,WSW,248,0.4,4.0,65,0.00,,,0.00,WUHU216HW,2013-01-28 19:07:00,
2013-01-28 11:12:00,52.2,40.3,30.18,North,0,2.0,2.5,64,0.00,,,0.00,WUHU216HW,2013-01-28 19:12:00,
2013-01-28 11:17:00,52.4,39.3,30.18,WNW,293,3.6,4.9,61,0.00,,,0.00,WUHU216HW,2013-01-28 19:17:00,
2013-01-28 11:22:00,52.6,39.9,30.18,North,0,1.1,4.9,62,0.00,,,0.00,WUHU216HW,2013-01-28 19:22:00,
2013-01-28 11:27:00,52.7,39.6,30.18,NW,315,1.6,3.6,61,0.00,,,0.00,WUHU216HW,2013-01-28 19:27:00,
2013-01-28 11:32:00,52.9,38.5,30.18,NNW,338,0.4,5.6,58,0.00,,,0.00,WUHU216HW,2013-01-28 19:32:00,
2013-01-28 11:38:00,53.3,38.4,30.18,NW,315,2.9,5.6,57,0.00,,,0.00,WUHU216HW,2013-01-28 19:38:00,
2013-01-28 11:43:00,53.6,38.3,30.18,North,0,0.4,5.6,56,0.00,,,0.00,WUHU216HW,2013-01-28 19:43:00,
2013-01-28 11:48:00,53.8,38.0,30.17,WNW,293,3.1,4.7,55,0.00,,,0.00,WUHU216HW,2013-01-28 19:48:00,
2013-01-28 11:53:00,54.2,37.4,30.17,WNW,293,5.1,5.8,53,0.00,,,0.00,WUHU216HW,2013-01-28 19:53:00,
2013-01-28 11:58:00,54.4,37.5,30.17,North,0,3.4,6.9,53,0.00,,,0.00,WUHU216HW,2013-01-28 19:58:00,
2013-01-28 12:03:00,54.7,38.4,30.17,West,270,0.4,6.9,54,0.00,,,0.00,WUHU216HW,2013-01-28 20:03:00,
2013-01-28 12:08:00,55.1,39.1,30.17,North,0,0.7,6.7,55,0.00,,,0.00,WUHU216HW,2013-01-28 20:08:00,
2013-01-28 12:13:00,55.1,37.7,30.17,WNW,293,1.3,3.1,52,0.00,,,0.00,WUHU216HW,2013-01-28 20:13:00,
2013-01-28 12:19:00,55.4,37.5,30.17,WNW,293,1.6,5.6,51,0.00,,,0.00,WUHU216HW,2013-01-28 20:19:00,
2013-01-28 12:24:00,55.6,37.3,30.17,WNW,293,0.7,2.9,50,0.00,,,0.00,WUHU216HW,2013-01-28 20:24:00,
2013-01-28 12:29:00,55.8,37.4,30.17,NW,315,5.4,5.4,50,0.00,,,0.00,WUHU216HW,2013-01-28 20:29:00,
2013-01-28 12:34:00,56.2,37.8,30.16,West,270,4.9,5.4,50,0.00,,,0.00,WUHU216HW,2013-01-28 20:34:00,
2013-01-28 12:39:00,56.5,38.6,30.16,NE,45,1.8,4.9,51,0.00,,,0.00,WUHU216HW,2013-01-28 20:39:00,
2013-01-28 12:45:00,56.5,38.2,30.16,ENE,68,1.3,1.8,50,0.00,,,0.00,WUHU216HW,2013-01-28 20:45:00,
2013-01-28 12:50:00,56.9,39.0,30.16,WSW,248,0.4,1.8,51,0.00,,,0.00,WUHU216HW,2013-01-28 20:50:00,
2013-01-28 12:55:00,57.1,38.2,30.16,West,270,5.1,5.1,49,0.00,,,0.00,WUHU216HW,2013-01-28 20:55:00,
2013-01-28 13:00:00,57.2,38.9,30.16,North,0,1.6,5.1,50,0.00,,,0.00,WUHU216HW,2013-01-28 21:00:00,
2013-01-28 13:05:00,57.4,38.4,30.16,WNW,293,4.3,4.9,49,0.00,,,0.00,WUHU216HW,2013-01-28 21:05:00,
2013-01-28 13:10:00,57.4,37.9,30.16,West,270,1.6,6.7,48,0.00,,,0.00,WUHU216HW,2013-01-28 21:10:00,
2013-01-28 13:15:00,57.4,37.9,30.16,WNW,293,6.5,6.7,48,0.00,,,0.00,WUHU216HW,2013-01-28 21:15:00,
2013-01-28 13:20:00,57.6,38.6,30.16,ENE,68,1.8,6.5,49,0.00,,,0.00,WUHU216HW,2013-01-28 21:20:00,
2013-01-28 13:25:00,57.8,38.3,30.16,NE,45,1.8,3.6,48,0.00,,,0.00,WUHU216HW,2013-01-28 21:25:00,
2013-01-28 13:30:00,58.0,37.3,30.15,NNE,23,6.3,6.3,46,0.00,,,0.00,WUHU216HW,2013-01-28 21:30:00,
2013-01-28 13:35:00,58.0,37.3,30.15,NW,315,4.9,6.5,46,0.00,,,0.00,WUHU216HW,2013-01-28 21:35:00,
2013-01-28 13:41:00,58.1,38.0,30.15,NNW,338,0.4,6.5,47,0.00,,,0.00,WUHU216HW,2013-01-28 21:41:00,
2013-01-28 13:46:00,58.1,37.4,30.15,WNW,293,4.7,7.6,46,0.00,,,0.00,WUHU216HW,2013-01-28 21:46:00,
2013-01-28 13:51:00,58.1,37.4,30.15,NW,315,8.1,8.1,46,0.00,,,0.00,WUHU216HW,2013-01-28 21:51:00,
2013-01-28 13:56:00,58.1,38.0,30.15,West,270,3.6,8.1,47,0.00,,,0.00,WUHU216HW,2013-01-28 21:56:00,
2013-01-28 14:01:00,58.3,38.2,30.15,NNW,338,1.8,6.5,47,0.00,,,0.00,WUHU216HW,2013-01-28 22:01:00,
2013-01-28 14:06:00,58.1,38.0,30.15,NW,315,4.9,6.5,47,0.00,,,0.00,WUHU216HW,2013-01-28 22:06:00,
2013-01-28 14:11:00,58.0,38.3,30.15,NNE,23,1.3,4.9,48,0.00,,,0.00,WUHU216HW,2013-01-28 22:11:00,
2013-01-28 14:17:00,58.1,38.0,30.15,WNW,293,6.7,6.7,47,0.00,,,0.00,WUHU216HW,2013-01-28 22:17:00,
2013-01-28 14:23:00,58.3,38.2,30.15,West,270,5.8,6.9,47,0.00,,,0.00,WUHU216HW,2013-01-28 22:23:00,
2013-01-28 14:28:00,58.3,37.5,30.15,NW,315,6.0,6.0,46,0.00,,,0.00,WUHU216HW,2013-01-28 22:28:00,
2013-01-28 14:33:00,58.1,38.0,30.15,ESE,113,1.3,6.0,47,0.00,,,0.00,WUHU216HW,2013-01-28 22:33:00,
2013-01-28 14:39:00,58.5,38.3,30.15,NW,315,2.5,5.4,47,0.00,,,0.00,WUHU216HW,2013-01-28 22:39:00,
2013-01-28 14:44:00,58.7,38.4,30.15,WNW,293,3.4,4.7,47,0.00,,,0.00,WUHU216HW,2013-01-28 22:44:00,
2013-01-28 14:49:00,58.7,38.4,30.15,NW,315,2.5,6.7,47,0.00,,,0.00,WUHU216HW,2013-01-28 22:49:00,
2013-01-28 14:54:00,58.7,38.4,30.15,West,270,1.1,2.9,47,0.00,,,0.00,WUHU216HW,2013-01-28 22:54:00,
2013-01-28 14:59:00,58.9,38.1,30.15,WNW,293,5.1,5.6,46,0.00,,,0.00,WUHU216HW,2013-01-28 22:59:00,
2013-01-28 15:04:00,58.7,38.4,30.15,West,270,3.6,5.6,47,0.00,,,0.00,WUHU216HW,2013-01-28 23:04:00,
2013-01-28 15:09:00,58.7,38.4,30.15,NW,315,3.4,7.2,47,0.00,,,0.00,WUHU216HW,2013-01-28 23:09:00,
2013-01-28 15:14:00,58.7,39.1,30.15,NNW,338,2.2,7.2,48,0.00,,,0.00,WUHU216HW,2013-01-28 23:14:00,
2013-01-28 15:20:00,58.7,38.4,30.15,WSW,248,3.8,6.9,47,0.00,,,0.00,WUHU216HW,2013-01-28 23:20:00,
2013-01-28 15:25:00,58.3,37.5,30.15,WNW,293,5.8,7.6,46,0.00,,,0.00,WUHU216HW,2013-01-28 23:25:00,
2013-01-28 15:31:00,58.1,38.0,30.15,WNW,293,1.8,7.6,47,0.00,,,0.00,WUHU216HW,2013-01-28 23:31:00,
2013-01-28 15:36:00,58.0,37.8,30.15,WNW,293,4.7,7.2,47,0.00,,,0.00,WUHU216HW,2013-01-28 23:36:00,
2013-01-28 15:41:00,57.8,37.6,30.15,WNW,293,6.9,7.2,47,0.00,,,0.00,WUHU216HW,2013-01-28 23:41:00,
2013-01-28 15:46:00,57.4,37.4,30.15,NW,315,0.9,6.9,47,0.00,,,0.00,WUHU216HW,2013-01-28 23:46:00,
2013-01-28 15:51:00,57.4,37.4,30.15,WNW,293,4.3,5.4,47,0.00,,,0.00,WUHU216HW,2013-01-28 23:51:00,
2013-01-28 15:56:00,57.2,38.4,30.15,NW,315,2.0,5.1,49,0.00,,,0.00,WUHU216HW,2013-01-28 23:56:00,
2013-01-28 16:01:00,57.2,37.7,30.15,West,270,6.5,6.5,48,0.00,,,0.00,WUHU216HW,2013-01-29 00:01:00,
2013-01-28 16:06:00,57.1,38.2,30.15,North,0,1.1,7.4,49,0.00,,,0.00,WUHU216HW,2013-01-29 00:06:00,
2013-01-28 16:11:00,56.7,37.8,30.15,West,270,3.4,7.4,49,0.00,,,0.00,WUHU216HW,2013-01-29 00:11:00,
2013-01-28 16:16:00,56.5,38.2,30.15,NW,315,0.4,5.4,50,0.00,,,0.00,WUHU216HW,2013-01-29 00:16:00,
2013-01-28 16:21:00,56.5,38.2,30.15,WNW,293,2.9,5.4,50,0.00,,,0.00,WUHU216HW,2013-01-29 00:21:00,
2013-01-28 16:27:00,56.5,38.6,30.15,NW,315,4.3,4.3,51,0.00,,,0.00,WUHU216HW,2013-01-29 00:27:00,
2013-01-28 16:32:00,56.5,39.1,30.15,SW,225,1.1,5.4,52,0.00,,,0.00,WUHU216HW,2013-01-29 00:32:00,
2013-01-28 16:37:00,56.2,39.3,30.16,West,270,6.7,6.7,53,0.00,,,0.00,WUHU216HW,2013-01-29 00:37:00,
2013-01-28 16:42:00,55.8,39.8,30.16,WSW,248,2.5,6.7,55,0.00,,,0.00,WUHU216HW,2013-01-29 00:42:00,
2013-01-28 16:47:00,55.4,40.3,30.16,West,270,8.1,8.1,57,0.00,,,0.00,WUHU216HW,2013-01-29 00:47:00,
2013-01-28 16:52:00,55.1,40.5,30.15,WSW,248,3.8,8.1,58,0.00,,,0.00,WUHU216HW,2013-01-29 00:52:00,
2013-01-28 16:57:00,54.7,40.1,30.16,West,270,3.4,4.9,58,0.00,,,0.00,WUHU216HW,2013-01-29 00:57:00,
2013-01-28 17:02:00,54.4,40.8,30.17,SW,225,2.5,5.4,60,0.00,,,0.00,WUHU216HW,2013-01-29 01:02:00,
2013-01-28 17:07:00,54.0,40.9,30.17,NNW,338,1.6,5.4,61,0.00,,,0.00,WUHU216HW,2013-01-29 01:07:00,
2013-01-28 17:12:00,53.8,40.7,30.16,WSW,248,4.9,6.7,61,0.00,,,0.00,WUHU216HW,2013-01-29 01:12:00,
2013-01-28 17:18:00,53.6,41.0,30.16,WNW,293,3.8,6.7,62,0.00,,,0.00,WUHU216HW,2013-01-29 01:18:00,
2013-01-28 17:23:00,53.3,41.0,30.17,WNW,293,4.5,5.1,63,0.00,,,0.00,WUHU216HW,2013-01-29 01:23:00,
2013-01-28 17:28:00,53.1,40.8,30.17,WNW,293,2.0,5.1,63,0.00,,,0.00,WUHU216HW,2013-01-29 01:28:00,
2013-01-28 17:33:00,52.9,41.1,30.17,West,270,1.6,3.8,64,0.00,,,0.00,WUHU216HW,2013-01-29 01:33:00,
2013-01-28 17:38:00,52.6,40.7,30.17,WNW,293,3.1,3.8,64,0.00,,,0.00,WUHU216HW,2013-01-29 01:38:00,
2013-01-28 17:43:00,52.4,41.0,30.17,WNW,293,2.5,3.1,65,0.00,,,0.00,WUHU216HW,2013-01-29 01:43:00,
2013-01-28 17:48:00,52.0,41.0,30.17,WNW,293,2.5,2.9,66,0.00,,,0.00,WUHU216HW,2013-01-29 01:48:00,
2013-01-28 17:53:00,51.8,41.2,30.17,NW,315,4.3,4.3,67,0.00,,,0.00,WUHU216HW,2013-01-29 01:53:00,
2013-01-28 17:58:00,51.5,41.3,30.17,NW,315,2.0,5.4,68,0.00,,,0.00,WUHU216HW,2013-01-29 01:58:00,
2013-01-28 18:03:00,51.5,41.3,30.18,NW,315,2.0,5.4,68,0.00,,,0.00,WUHU216HW,2013-01-29 02:03:00,
2013-01-28 18:08:00,51.1,41.0,30.18,West,270,4.0,4.9,68,0.00,,,0.00,WUHU216HW,2013-01-29 02:08:00,
2013-01-28 18:13:00,50.9,40.8,30.18,WNW,293,4.0,4.9,68,0.00,,,0.00,WUHU216HW,2013-01-29 02:13:00,
2013-01-28 18:18:00,50.8,41.1,30.18,NW,315,5.4,5.8,69,0.00,,,0.00,WUHU216HW,2013-01-29 02:18:00,
2013-01-28 18:24:00,50.6,40.9,30.18,West,270,3.4,6.3,69,0.00,,,0.00,WUHU216HW,2013-01-29 02:24:00,
2013-01-28 18:29:00,50.4,41.0,30.19,West,270,3.6,6.3,70,0.00,,,0.00,WUHU216HW,2013-01-29 02:29:00,
2013-01-28 18:34:00,50.4,41.0,30.19,NW,315,4.3,4.3,70,0.00,,,0.00,WUHU216HW,2013-01-29 02:34:00,
2013-01-28 18:39:00,50.0,40.7,30.19,WNW,293,2.0,4.3,70,0.00,,,0.00,WUHU216HW,2013-01-29 02:39:00,
2013-01-28 18:44:00,50.0,40.7,30.19,West,270,2.9,3.4,70,0.00,,,0.00,WUHU216HW,2013-01-29 02:44:00,
2013-01-28 18:49:00,49.7,40.3,30.19,NW,315,1.1,2.9,70,0.00,,,0.00,WUHU216HW,2013-01-29 02:49:00,
2013-01-28 18:54:00,49.5,40.5,30.19,WNW,293,1.8,2.7,71,0.00,,,0.00,WUHU216HW,2013-01-29 02:54:00,
2013-01-28 18:59:00,49.3,40.7,30.20,NW,315,3.1,3.1,72,0.00,,,0.00,WUHU216HW,2013-01-29 02:59:00,
2013-01-28 19:04:00,49.1,40.5,30.20,NW,315,0.9,4.5,72,0.00,,,0.00,WUHU216HW,2013-01-29 03:04:00,
2013-01-28 19:09:00,49.0,40.3,30.20,WNW,293,3.4,4.5,72,0.00,,,0.00,WUHU216HW,2013-01-29 03:09:00,
2013-01-28 19:15:00,48.8,40.2,30.20,NW,315,1.6,3.4,72,0.00,,,0.00,WUHU216HW,2013-01-29 03:15:00,
2013-01-28 19:20:00,48.6,40.2,30.20,NW,315,2.2,3.4,73,0.00,,,0.00,WUHU216HW,2013-01-29 03:20:00,
2013-01-28 19:25:00,48.6,40.2,30.20,WNW,293,2.2,2.7,73,0.00,,,0.00,WUHU216HW,2013-01-29 03:25:00,
2013-01-28 19:30:00,48.4,40.1,30.20,West,270,0.0,2.7,73,0.00,,,0.00,WUHU216HW,2013-01-29 03:30:00,
2013-01-28 19:35:00,48.2,39.9,30.20,WSW,248,1.1,1.1,73,0.00,,,0.00,WUHU216HW,2013-01-29 03:35:00,
2013-01-28 19:40:00,48.1,39.8,30.20,West,270,0.9,1.3,73,0.00,,,0.00,WUHU216HW,2013-01-29 03:40:00,
2013-01-28 19:45:00,47.9,40.0,30.20,NNE,23,0.0,1.3,74,0.00,,,0.00,WUHU216HW,2013-01-29 03:45:00,
2013-01-28 19:50:00,47.5,39.2,30.20,NNE,23,0.2,1.1,73,0.00,,,0.00,WUHU216HW,2013-01-29 03:50:00,
2013-01-28 19:55:00,47.3,39.4,30.20,WNW,293,0.0,0.7,74,0.00,,,0.00,WUHU216HW,2013-01-29 03:55:00,
2013-01-28 20:00:00,47.2,39.2,30.20,West,270,0.2,0.7,74,0.00,,,0.00,WUHU216HW,2013-01-29 04:00:00,
2013-01-28 20:05:00,46.8,39.0,30.21,NW,315,0.4,1.8,74,0.00,,,0.00,WUHU216HW,2013-01-29 04:05:00,
2013-01-28 20:10:00,46.4,38.6,30.20,WSW,248,0.0,1.8,74,0.00,,,0.00,WUHU216HW,2013-01-29 04:10:00,
2013-01-28 20:15:00,46.4,39.0,30.21,SE,135,0.2,0.9,75,0.00,,,0.00,WUHU216HW,2013-01-29 04:15:00,
2013-01-28 20:21:00,46.1,38.6,30.21,East,90,0.7,0.9,75,0.00,,,0.00,WUHU216HW,2013-01-29 04:21:00,
2013-01-28 20:26:00,45.7,38.3,30.21,ESE,113,0.0,0.9,75,0.00,,,0.00,WUHU216HW,2013-01-29 04:26:00,
2013-01-28 20:31:00,45.5,38.4,30.21,East,90,0.0,0.2,76,0.00,,,0.00,WUHU216HW,2013-01-29 04:31:00,
2013-01-28 20:36:00,45.2,37.7,30.21,NE,45,0.4,0.4,75,0.00,,,0.00,WUHU216HW,2013-01-29 04:36:00,
2013-01-28 20:41:00,45.0,37.9,30.21,East,90,0.2,0.7,76,0.00,,,0.00,WUHU216HW,2013-01-29 04:41:00,
2013-01-28 20:47:00,44.6,37.5,30.21,East,90,0.0,0.7,76,0.00,,,0.00,WUHU216HW,2013-01-29 04:47:00,
2013-01-28 20:52:00,44.5,37.4,30.21,ENE,68,0.7,0.9,76,0.00,,,0.00,WUHU216HW,2013-01-29 04:52:00,
2013-01-28 20:57:00,44.3,37.2,30.22,ENE,68,0.2,0.9,76,0.00,,,0.00,WUHU216HW,2013-01-29 04:57:00,
2013-01-28 21:00:00,44.1,37.0,30.22,West,270,0.0,0.9,76,0.00,,,0.00,WUHU216HW,2013-01-29 05:00:00,
2013-01-28 21:02:00,44.1,37.0,30.22,West,270,0.0,0.7,76,0.00,,,0.00,WUHU216HW,2013-01-29 05:02:00,
2013-01-28 21:03:00,43.9,37.2,30.22,West,270,0.4,0.4,77,0.00,,,0.00,WUHU216HW,2013-01-29 05:03:00,
2013-01-28 21:05:00,43.9,37.2,30.22,West,270,0.0,0.4,77,0.00,,,0.00,WUHU216HW,2013-01-29 05:05:00,
2013-01-28 21:10:00,43.7,37.0,30.22,West,270,0.0,0.4,77,0.00,,,0.00,WUHU216HW,2013-01-29 05:10:00,
2013-01-28 21:15:00,43.6,36.8,30.22,ENE,68,0.4,0.7,77,0.00,,,0.00,WUHU216HW,2013-01-29 05:15:00,
2013-01-28 21:20:00,43.4,36.6,30.22,ENE,68,0.0,0.7,77,0.00,,,0.00,WUHU216HW,2013-01-29 05:20:00,
2013-01-28 21:25:00,43.2,36.8,30.21,East,90,0.7,0.7,78,0.00,,,0.00,WUHU216HW,2013-01-29 05:25:00,
2013-01-28 21:30:00,42.8,36.5,30.22,East,90,0.4,0.9,78,0.00,,,0.00,WUHU216HW,2013-01-29 05:30:00,
2013-01-28 21:35:00,42.8,36.5,30.22,East,90,0.0,0.7,78,0.00,,,0.00,WUHU216HW,2013-01-29 05:35:00,
2013-01-28 21:40:00,42.7,36.5,30.22,NE,45,0.4,0.4,79,0.00,,,0.00,WUHU216HW,2013-01-29 05:40:00,
2013-01-28 21:45:00,42.5,36.4,30.22,NNE,23,0.4,0.4,79,0.00,,,0.00,WUHU216HW,2013-01-29 05:45:00,
2013-01-28 21:51:00,42.3,36.2,30.21,East,90,0.7,0.7,79,0.00,,,0.00,WUHU216HW,2013-01-29 05:51:00,
2013-01-28 21:56:00,42.1,36.0,30.22,ENE,68,0.2,0.7,79,0.00,,,0.00,WUHU216HW,2013-01-29 05:56:00,
2013-01-28 22:01:00,41.9,36.2,30.22,NE,45,0.2,0.7,80,0.00,,,0.00,WUHU216HW,2013-01-29 06:01:00,
2013-01-28 22:06:00,41.8,35.6,30.22,NE,45,0.2,0.4,79,0.00,,,0.00,WUHU216HW,2013-01-29 06:06:00,
2013-01-28 22:11:00,41.6,35.8,30.22,East,90,0.0,0.4,80,0.00,,,0.00,WUHU216HW,2013-01-29 06:11:00,
2013-01-28 22:16:00,41.4,35.6,30.22,NE,45,0.4,0.4,80,0.00,,,0.00,WUHU216HW,2013-01-29 06:16:00,
2013-01-28 22:22:00,41.4,35.6,30.22,ENE,68,0.7,0.7,80,0.00,,,0.00,WUHU216HW,2013-01-29 06:22:00,
2013-01-28 22:27:00,41.0,35.6,30.22,ENE,68,0.0,0.7,81,0.00,,,0.00,WUHU216HW,2013-01-29 06:27:00,
2013-01-28 22:32:00,41.0,35.6,30.22,ENE,68,0.0,0.4,81,0.00,,,0.00,WUHU216HW,2013-01-29 06:32:00,
2013-01-28 22:37:00,40.7,35.3,30.21,ENE,68,0.0,0.0,81,0.00,,,0.00,WUHU216HW,2013-01-29 06:37:00,
2013-01-28 22:42:00,40.7,35.3,30.22,ENE,68,0.0,0.0,81,0.00,,,0.00,WUHU216HW,2013-01-29 06:42:00,
2013-01-28 22:47:00,40.5,35.1,30.22,NE,45,0.4,0.4,81,0.00,,,0.00,WUHU216HW,2013-01-29 06:47:00,
2013-01-28 22:53:00,40.3,34.9,30.22,NNE,23,0.0,0.4,81,0.00,,,0.00,WUHU216HW,2013-01-29 06:53:00,
2013-01-28 22:58:00,40.1,34.7,30.22,NNE,23,0.0,0.4,81,0.00,,,0.00,WUHU216HW,2013-01-29 06:58:00,
2013-01-28 23:03:00,40.0,34.6,30.23,NE,45,0.2,0.4,81,0.00,,,0.00,WUHU216HW,2013-01-29 07:03:00,
2013-01-28 23:08:00,40.0,34.6,30.22,NE,45,0.4,0.4,81,0.00,,,0.00,WUHU216HW,2013-01-29 07:08:00,
2013-01-28 23:13:00,40.0,34.6,30.22,NE,45,0.0,0.9,81,0.00,,,0.00,WUHU216HW,2013-01-29 07:13:00,
2013-01-28 23:18:00,39.8,34.5,30.22,NE,45,0.0,0.9,81,0.00,,,0.00,WUHU216HW,2013-01-29 07:18:00,
2013-01-28 23:23:00,39.6,34.6,30.23,ENE,68,0.4,0.7,82,0.00,,,0.00,WUHU216HW,2013-01-29 07:23:00,
2013-01-28 23:28:00,39.6,34.6,30.22,NE,45,0.0,0.7,82,0.00,,,0.00,WUHU216HW,2013-01-29 07:28:00,
2013-01-28 23:33:00,39.4,34.4,30.23,NE,45,0.4,0.4,82,0.00,,,0.00,WUHU216HW,2013-01-29 07:33:00,
2013-01-28 23:38:00,39.2,34.2,30.23,NE,45,0.0,0.4,82,0.00,,,0.00,WUHU216HW,2013-01-29 07:38:00,
2013-01-28 23:43:00,39.2,34.2,30.23,NE,45,0.0,0.2,82,0.00,,,0.00,WUHU216HW,2013-01-29 07:43:00,
2013-01-28 23:48:00,39.2,34.6,30.22,WSW,248,0.0,0.4,83,0.00,,,0.00,WUHU216HW,2013-01-29 07:48:00,
2013-01-28 23:53:00,39.2,34.6,30.22,ENE,68,0.4,0.4,83,0.00,,,0.00,WUHU216HW,2013-01-29 07:53:00,
2013-01-28 23:58:00,39.1,34.4,30.23,East,90,0.2,0.4,83,0.00,,,0.00,WUHU216HW,2013-01-29 07:58:00,